Flag for Uruguay Weather past 2 weeks in Melo, Uruguay

Now
55 °F

Overcast.


Feels Like: 54 °F
Forecast: 46 / 68 °F
Wind: 6 mph from Northeast

Location: Pelotas Airport

Current Time: Jul 29, 2014 at 6:13:06 AM

Latest Report: Jul 29, 2014 at 6:00 AM


Visibility: N/A

Pressure: 30.33 "Hg

Humidity: 100%

Dew point: 55 °F

Location of MeloLocation

Historic Weather in Melo — Graph

°F

Melo temperature yesterday

Maximum temperature yesterday: 59 °F (at 1:00 PM)
Minimum temperature yesterday: 36 °F (at 7:00 AM)
Average temperature yesterday: 48 °F

Past Weeks' High & Low Weather Summary

 TemperatureHumidityPressure
High73 °F (Jul 14, 1:00 PM)100% (Jul 14, 6:00 AM)30.48 "Hg (Jul 14, 6:00 AM)
Low36 °F (Jul 28, 7:00 AM)41% (Jul 25, 2:00 PM)29.65 "Hg (Jul 23, 4:00 PM)
Average57 °F86%30.10 "Hg
* Reported Jul 14 6:00 AM — Jul 29 5:00 AM, Melo, Weather by CustomWeather, © 2014

Note: Actual official high and low records may vary slightly from our data, if they occured in-between our weather recording intervals... More about our weather records

Advertising

Melo weather history for previous 24 hours

 ConditionsComfort  
Time TempWeatherWind HumidityBarometerVisibility
5:00 AM
Jul 29
55 °FOvercast.5 mph94%30.30 "HgN/A
4:00 AM55 °FOvercast.14 mph94%30.30 "HgN/A
3:00 AM55 °FPassing clouds.8 mph94%30.33 "HgN/A
2:00 AM54 °FPassing clouds.8 mph88%30.33 "HgN/A
1:00 AM52 °FPassing clouds.9 mph94%30.36 "HgN/A
12:00 AM48 °FClear.No wind94%30.39 "Hg10 mi
11:00 PM
Jul 28
50 °FClear.2 mph94%30.39 "Hg10 mi
10:00 PM48 °FClear.5 mph94%30.39 "Hg10 mi
9:00 PM52 °FClear.9 mph82%30.39 "Hg10 mi
8:00 PM50 °FClear.7 mph88%30.39 "Hg10 mi
7:00 PM48 °FClear.5 mph87%30.39 "Hg10 mi
6:00 PM52 °FClear.6 mph82%30.39 "Hg10 mi
5:00 PM55 °FClear.9 mph72%30.39 "Hg10 mi
4:00 PM57 °FSunny.14 mph67%30.39 "Hg10 mi
3:00 PM57 °FSunny.12 mph67%30.39 "Hg10 mi
2:00 PM59 °FSunny.12 mph63%30.42 "Hg10 mi
1:00 PM59 °FSunny.12 mph59%30.45 "Hg10 mi
12:00 PM57 °FSunny.12 mph67%30.45 "Hg10 mi
11:00 AM55 °FPassing clouds.12 mph77%30.48 "HgN/A
10:00 AM52 °FSunny.3 mph82%30.48 "Hg10 mi
9:00 AM45 °FSunny.No wind93%30.48 "Hg10 mi
8:00 AM37 °FSunny.No wind93%30.45 "Hg10 mi
7:00 AM36 °FSunny.No wind100%30.45 "Hg10 mi
6:00 AM37 °FClear.No wind93%30.42 "Hg10 mi
Weather by CustomWeather, © 2014

See weather overviewHow to use our weather pages